Louisville, KY

4:42 AM EDT on October 01, 2016 (GMT -0400)
Louisville International-Standiford

Weather History for KSDF - April, 2013

Change the Weather History Date:

Thursday, April 25, 2013

  Actual Average Record
Temperature  
Mean Temperature 49 °F 61 °F  
Max Temperature 63 °F 72 °F 88 °F (1989)
Min Temperature 35 °F 50 °F 29 °F (1919)
Degree Days  
Heating Degree Days 16 6  
Month to date heating degree days 214 221  
Since 1 July heating degree days 4031 4000  
Cooling Degree Days 0 2  
Month to date cooling degree days 47 31  
Year to date cooling degree days 47 37  
Moisture  
Dew Point 34 °F    
Average Humidity 64    
Maximum Humidity 92    
Minimum Humidity 36    
Precipitation  
Precipitation 0.00 in 0.15 in 2.11 in (1880)
Month to date precipitation 3.56 3.26  
Year to date precipitation 14.83 13.85  
Snow  
Snow 0.00 in 0.00 in 0.00 in ()
Month to date snowfall 0.0 0.1  
Since 1 July snowfall 9.8 12.5  
Snow Depth 0.00 in    
Sea Level Pressure  
Sea Level Pressure 30.32 in    
Wind  
Wind Speed 8 mph (WSW)    
Max Wind Speed 20 mph    
Max Gust Speed 26 mph    
Visibility 10 miles    
Events      
T = Trace of Precipitation, MM = Missing Value Source: NWS Daily Summary

Daily Weather History Graph

Daily Weather History Graph

Search for Another Location

Airport or City:

Trip Planner

Search our weather history database for the weather conditions in past years. The results will help you decide how hot, cold, wet, or windy it might be!

Date:

Astronomy

Apr. 25, 2013 Rise Set
Actual Time 6:53 AM EDT 8:28 PM EDT
Civil Twilight 6:25 AM EDT 8:56 PM EDT
Nautical Twilight 5:51 AM EDT 9:30 PM EDT
Astronomical Twilight 5:16 AM EDT 10:06 PM EDT
Moon 8:40 PM EDT (4/25) 6:35 AM EDT (4/25)
Length of Visible Light 14h 31m
Length of Day
13h 35m
Full, 100% of the Moon is Illuminated
Apr 25
Full
Apr 25
Full
May 2
Last Quarter
May 9
New
May 18
First Quarter

Hourly Weather History & Observations

Time (EDT) Temp. Windchill Dew Point Humidity Pressure Visibility Wind Dir Wind Speed Gust Speed Precip Events Conditions
12:56 AM 41.0 °F 38.0 °F 35.1 °F 79% 30.30 in 10.0 mi SW 4.6 mph - N/A   Mostly Cloudy
1:56 AM 42.1 °F - 36.0 °F 79% 30.30 in 10.0 mi Calm Calm - N/A   Mostly Cloudy
2:56 AM 39.9 °F 36.7 °F 35.1 °F 83% 30.27 in 10.0 mi South 4.6 mph - N/A   Scattered Clouds
3:56 AM 39.0 °F - 35.1 °F 86% 30.28 in 9.0 mi Calm Calm - N/A   Partly Cloudy
4:56 AM 39.0 °F 36.8 °F 35.1 °F 86% 30.29 in 10.0 mi South 3.5 mph - N/A   Clear
5:56 AM 36.0 °F 33.3 °F 33.1 °F 89% 30.30 in 8.0 mi ESE 3.5 mph - N/A   Clear
6:56 AM 36.0 °F - 33.1 °F 89% 30.32 in 6.0 mi Calm Calm - N/A   Clear
7:56 AM 37.9 °F - 35.1 °F 89% 30.32 in 8.0 mi Calm Calm - N/A   Clear
8:56 AM 42.1 °F 39.2 °F 37.0 °F 82% 30.35 in 8.0 mi SW 4.6 mph - N/A   Clear
9:56 AM 48.9 °F - 36.0 °F 61% 30.34 in 10.0 mi SW 6.9 mph - N/A   Clear
10:56 AM 51.1 °F - 34.0 °F 52% 30.34 in 10.0 mi SW 9.2 mph - N/A   Clear
11:56 AM 55.0 °F - 36.0 °F 49% 30.34 in 10.0 mi SW 13.8 mph - N/A   Partly Cloudy
12:56 PM 57.0 °F - 35.1 °F 44% 30.33 in 10.0 mi West 11.5 mph 19.6 mph N/A   Partly Cloudy
1:56 PM 59.0 °F - 36.0 °F 42% 30.31 in 10.0 mi WSW 9.2 mph 18.4 mph N/A   Partly Cloudy
2:56 PM 62.1 °F - 37.9 °F 41% 30.31 in 10.0 mi West 18.4 mph 25.3 mph N/A   Mostly Cloudy
3:56 PM 63.0 °F - 36.0 °F 37% 30.29 in 10.0 mi WSW 16.1 mph 25.3 mph N/A   Mostly Cloudy
4:56 PM 63.0 °F - 37.0 °F 38% 30.29 in 10.0 mi West 16.1 mph - N/A   Mostly Cloudy
5:56 PM 60.1 °F - 35.1 °F 39% 30.29 in 10.0 mi WNW 11.5 mph - N/A   Mostly Cloudy
6:56 PM 61.0 °F - 34.0 °F 36% 30.31 in 10.0 mi WNW 12.7 mph - N/A   Scattered Clouds
7:56 PM 57.9 °F - 32.0 °F 37% 30.32 in 10.0 mi WNW 11.5 mph - N/A   Scattered Clouds
8:56 PM 55.9 °F - 33.1 °F 42% 30.33 in 10.0 mi NW 8.1 mph - N/A   Partly Cloudy
9:56 PM 52.0 °F - 30.0 °F 43% 30.36 in 10.0 mi NNW 6.9 mph - N/A   Clear
10:56 PM 51.1 °F - 30.0 °F 44% 30.38 in 10.0 mi NNW 6.9 mph - N/A   Clear
11:56 PM 50.0 °F - 30.0 °F 46% 30.38 in 10.0 mi North 4.6 mph - N/A   Partly Cloudy